DLH9U EGLL-EDDF

Flight info

Callsign DLH9U
Flight time 1h 0m
Altitude 35000
Route DET L6 DVR UL9 KONAN UL607 SPI T180 NIVNU T847 IMCOM IMCOM1A
Aircraft A21N/M-SDE2E3FGIJ1LORWXYZ/HB1

Departure

Time 2026-04-14 11:30
Airport London Heathrow Airport (EGLL)

Arrival

Time 2026-04-14 12:30
Airport Frankfurt Main Airport (EDDF)
Time Latitude Longitude Altitude Speed Heading
2026-04-14 10:39 51.46858 -0.44678 91 ft 0 kts 267°
2026-04-14 11:21 51.46858 -0.44653 94 ft 4 kts 267°
2026-04-14 11:21 51.46860 -0.44610 94 ft 4 kts 267°
2026-04-14 11:21 51.46864 -0.44571 95 ft 4 kts 233°
2026-04-14 11:21 51.46882 -0.44555 91 ft 2 kts 180°
2026-04-14 11:22 51.46904 -0.44555 91 ft 2 kts 180°
2026-04-14 11:22 51.46905 -0.44555 91 ft 0 kts 180°
2026-04-14 11:24 51.46897 -0.44555 91 ft 4 kts 179°
2026-04-14 11:24 51.46861 -0.44554 91 ft 7 kts 179°
2026-04-14 11:25 51.46789 -0.44556 93 ft 13 kts 192°
2026-04-14 11:25 51.46754 -0.44708 92 ft 18 kts 270°
2026-04-14 11:25 51.46682 -0.44856 93 ft 20 kts 224°
2026-04-14 11:25 51.46665 -0.45076 92 ft 21 kts 270°
2026-04-14 11:26 51.46664 -0.45307 92 ft 23 kts 269°
2026-04-14 11:26 51.46662 -0.45568 91 ft 24 kts 269°
2026-04-14 11:26 51.46662 -0.45845 91 ft 26 kts 270°
2026-04-14 11:26 51.46662 -0.46131 92 ft 24 kts 269°
2026-04-14 11:27 51.46660 -0.46400 95 ft 25 kts 269°
2026-04-14 11:27 51.46660 -0.46689 95 ft 27 kts 270°
2026-04-14 11:27 51.46659 -0.46998 93 ft 28 kts 270°
2026-04-14 11:27 51.46657 -0.47284 94 ft 25 kts 269°
2026-04-14 11:28 51.46655 -0.47573 91 ft 27 kts 269°
2026-04-14 11:28 51.46655 -0.47878 91 ft 27 kts 269°
2026-04-14 11:28 51.46654 -0.48132 92 ft 23 kts 268°
2026-04-14 11:28 51.46544 -0.48212 93 ft 15 kts 178°
2026-04-14 11:29 51.46482 -0.48120 94 ft 15 kts 86°
2026-04-14 11:29 51.46482 -0.48103 94 ft 0 kts 93°
2026-04-14 11:29 51.46481 -0.48077 93 ft 19 kts 92°
2026-04-14 11:29 51.46467 -0.47418 93 ft 97 kts 88°
2026-04-14 11:30 51.46485 -0.45948 95 ft 165 kts 92°
2026-04-14 11:30 51.46530 -0.44016 682 ft 177 kts 92°
2026-04-14 11:30 51.46588 -0.42016 1598 ft 181 kts 95°
2026-04-14 11:30 51.46293 -0.40030 2127 ft 189 kts 122°
2026-04-14 11:31 51.45470 -0.38259 2640 ft 209 kts 134°
2026-04-14 11:31 51.44486 -0.36379 3202 ft 231 kts 134°
2026-04-14 11:31 51.43703 -0.33984 3871 ft 255 kts 112°
2026-04-14 11:31 51.43229 -0.31187 4739 ft 264 kts 109°
2026-04-14 11:32 51.42797 -0.28295 5606 ft 270 kts 107°
2026-04-14 11:32 51.42374 -0.25337 6461 ft 275 kts 105°
2026-04-14 11:32 51.41949 -0.22307 7258 ft 281 kts 105°
2026-04-14 11:32 51.41521 -0.19219 8063 ft 287 kts 105°
2026-04-14 11:33 51.41089 -0.16072 8896 ft 292 kts 105°
2026-04-14 11:33 51.40648 -0.12883 9729 ft 295 kts 104°
2026-04-14 11:33 51.40200 -0.09640 10415 ft 304 kts 104°
2026-04-14 11:34 51.39237 -0.02723 11327 ft 334 kts 104°
2026-04-14 11:34 51.38727 0.00938 11992 ft 340 kts 103°
2026-04-14 11:34 51.38210 0.04658 12685 ft 345 kts 103°
2026-04-14 11:34 51.37682 0.08438 13440 ft 350 kts 104°
2026-04-14 11:35 51.37148 0.12263 14158 ft 354 kts 104°
2026-04-14 11:35 51.36604 0.16141 14834 ft 358 kts 103°
2026-04-14 11:35 51.36053 0.20049 15500 ft 362 kts 103°
2026-04-14 11:35 51.35491 0.24013 16165 ft 367 kts 103°
2026-04-14 11:36 51.34925 0.28016 16844 ft 371 kts 103°
2026-04-14 11:36 51.34350 0.32068 17523 ft 375 kts 103°
2026-04-14 11:36 51.33769 0.36153 18188 ft 379 kts 102°
2026-04-14 11:36 51.33181 0.40282 18779 ft 383 kts 102°
2026-04-14 11:37 51.32589 0.44423 19204 ft 386 kts 102°
2026-04-14 11:37 51.31982 0.48661 19719 ft 391 kts 102°
2026-04-14 11:37 51.31371 0.52921 20241 ft 396 kts 101°
2026-04-14 11:37 51.30750 0.57228 20768 ft 400 kts 101°
2026-04-14 11:38 51.30059 0.61564 21270 ft 405 kts 104°
2026-04-14 11:38 51.29283 0.65858 21775 ft 409 kts 104°
2026-04-14 11:38 51.28481 0.70242 22278 ft 414 kts 104°
2026-04-14 11:38 51.27666 0.74688 22781 ft 419 kts 104°
2026-04-14 11:39 51.26840 0.79178 23290 ft 423 kts 104°
2026-04-14 11:39 51.26003 0.83698 23764 ft 427 kts 104°
2026-04-14 11:39 51.25155 0.88265 24183 ft 431 kts 104°
2026-04-14 11:39 51.24300 0.92874 24609 ft 435 kts 104°
2026-04-14 11:40 51.23437 0.97532 25058 ft 438 kts 103°
2026-04-14 11:40 51.22571 1.02208 25479 ft 440 kts 103°
2026-04-14 11:40 51.21698 1.06900 25878 ft 443 kts 103°
2026-04-14 11:40 51.20813 1.11634 26253 ft 447 kts 103°
2026-04-14 11:41 51.19935 1.16325 26629 ft 450 kts 103°
2026-04-14 11:41 51.19034 1.21128 26989 ft 453 kts 103°
2026-04-14 11:41 51.18124 1.25956 27347 ft 457 kts 103°
2026-04-14 11:41 51.17204 1.30826 27686 ft 460 kts 103°
2026-04-14 11:42 51.16357 1.35749 28019 ft 461 kts 97°
2026-04-14 11:42 51.15974 1.40801 28356 ft 459 kts 89°
2026-04-14 11:42 51.15743 1.45891 28716 ft 461 kts 89°
2026-04-14 11:42 51.15519 1.50996 29067 ft 464 kts 89°
2026-04-14 11:43 51.15282 1.56140 29395 ft 466 kts 89°
2026-04-14 11:43 51.15033 1.61305 29711 ft 469 kts 89°
2026-04-14 11:43 51.14777 1.66493 30012 ft 472 kts 89°
2026-04-14 11:43 51.14516 1.71716 30297 ft 474 kts 89°
2026-04-14 11:44 51.14252 1.76960 30559 ft 476 kts 89°
2026-04-14 11:44 51.13986 1.82213 30836 ft 477 kts 89°
2026-04-14 11:44 51.13715 1.87484 31120 ft 479 kts 89°
2026-04-14 11:44 51.13442 1.92776 31459 ft 479 kts 89°
2026-04-14 11:45 51.13167 1.98050 31801 ft 478 kts 89°
2026-04-14 11:45 51.12889 2.03321 32133 ft 477 kts 89°
2026-04-14 11:45 51.12610 2.08570 32521 ft 475 kts 89°
2026-04-14 11:45 51.12328 2.13803 32867 ft 474 kts 89°
2026-04-14 11:46 51.12044 2.19014 33209 ft 472 kts 89°
2026-04-14 11:46 51.11763 2.24212 33534 ft 471 kts 89°
2026-04-14 11:46 51.11481 2.29395 33851 ft 470 kts 89°
2026-04-14 11:46 51.11197 2.34565 34152 ft 469 kts 89°
2026-04-14 11:47 51.10907 2.39730 34431 ft 468 kts 90°
2026-04-14 11:47 51.10615 2.44876 34675 ft 466 kts 90°
2026-04-14 11:47 51.10323 2.50008 34885 ft 466 kts 90°
2026-04-14 11:47 51.10032 2.55070 35082 ft 466 kts 90°
2026-04-14 11:48 51.09738 2.60202 35229 ft 466 kts 90°
2026-04-14 11:48 51.08556 2.70367 35237 ft 471 kts 102°
2026-04-14 11:49 51.06715 2.80360 35216 ft 471 kts 102°
2026-04-14 11:49 51.04893 2.90354 35235 ft 470 kts 102°
2026-04-14 11:50 51.03074 3.00326 35224 ft 470 kts 102°
2026-04-14 11:50 51.01241 3.10293 35223 ft 470 kts 102°
2026-04-14 11:51 50.98476 3.25215 35217 ft 470 kts 103°
2026-04-14 11:51 50.96626 3.35147 35223 ft 469 kts 103°
2026-04-14 11:52 50.94765 3.45064 35225 ft 469 kts 103°
2026-04-14 11:52 50.92900 3.54961 35223 ft 469 kts 103°
2026-04-14 11:53 50.91028 3.64848 35221 ft 469 kts 103°
2026-04-14 11:53 50.89127 3.74735 35217 ft 469 kts 103°
2026-04-14 11:54 50.87219 3.84590 35229 ft 468 kts 103°
2026-04-14 11:54 50.85306 3.94428 35221 ft 467 kts 104°
2026-04-14 11:55 50.83424 4.04074 35224 ft 468 kts 103°
2026-04-14 11:55 50.81463 4.14075 35230 ft 468 kts 104°
2026-04-14 11:56 50.79530 4.23885 35225 ft 467 kts 104°
2026-04-14 11:56 50.77588 4.33669 35235 ft 466 kts 104°
2026-04-14 11:57 50.75655 4.43379 35231 ft 467 kts 104°
2026-04-14 11:57 50.73697 4.53151 35229 ft 467 kts 104°
2026-04-14 11:58 50.71739 4.62918 35230 ft 467 kts 103°
2026-04-14 11:58 50.69850 4.72697 35229 ft 465 kts 103°
2026-04-14 11:59 50.67963 4.82453 35225 ft 465 kts 103°
2026-04-14 11:59 50.66056 4.92190 35228 ft 465 kts 104°
2026-04-14 12:00 50.64074 5.01896 35231 ft 466 kts 104°
2026-04-14 12:00 50.62065 5.11599 35229 ft 466 kts 104°
2026-04-14 12:01 50.60065 5.21258 35230 ft 463 kts 105°
2026-04-14 12:01 50.58068 5.30880 35225 ft 462 kts 105°
2026-04-14 12:02 50.56063 5.40500 35225 ft 463 kts 105°
2026-04-14 12:02 50.54048 5.50104 35222 ft 463 kts 105°
2026-04-14 12:03 50.52025 5.59705 35232 ft 463 kts 105°
2026-04-14 12:03 50.50153 5.69348 35219 ft 460 kts 103°
2026-04-14 12:04 50.48378 5.78872 34934 ft 451 kts 103°
2026-04-14 12:04 50.47495 5.83581 34664 ft 448 kts 103°
2026-04-14 12:04 50.46618 5.88255 34419 ft 446 kts 103°
2026-04-14 12:05 50.45743 5.92910 34176 ft 445 kts 103°
2026-04-14 12:05 50.44866 5.97555 33893 ft 443 kts 103°
2026-04-14 12:05 50.43990 6.02172 33502 ft 439 kts 103°
2026-04-14 12:05 50.43121 6.06740 33007 ft 435 kts 103°
2026-04-14 12:06 50.42259 6.11273 32442 ft 433 kts 103°
2026-04-14 12:06 50.41399 6.15779 31870 ft 430 kts 103°
2026-04-14 12:06 50.40542 6.20259 31317 ft 428 kts 103°
2026-04-14 12:06 50.39688 6.24715 30789 ft 425 kts 103°
2026-04-14 12:07 50.38838 6.29140 30264 ft 423 kts 103°
2026-04-14 12:07 50.37992 6.33534 29639 ft 421 kts 103°
2026-04-14 12:07 50.37148 6.37908 29046 ft 418 kts 104°
2026-04-14 12:07 50.36383 6.42272 28503 ft 412 kts 99°
2026-04-14 12:08 50.35987 6.46662 27997 ft 404 kts 92°
2026-04-14 12:08 50.35758 6.51022 27527 ft 400 kts 92°
2026-04-14 12:08 50.35520 6.55344 26941 ft 398 kts 95°
2026-04-14 12:08 50.34806 6.59562 26047 ft 406 kts 110°
2026-04-14 12:09 50.33686 6.63612 25350 ft 404 kts 113°
2026-04-14 12:09 50.32538 6.67590 24780 ft 399 kts 113°
2026-04-14 12:09 50.31417 6.71540 24155 ft 396 kts 113°
2026-04-14 12:09 50.30317 6.75472 23540 ft 392 kts 113°
2026-04-14 12:10 50.29243 6.79368 22870 ft 388 kts 112°
2026-04-14 12:10 50.28186 6.83214 22239 ft 383 kts 112°
2026-04-14 12:10 50.27141 6.87012 21523 ft 379 kts 112°
2026-04-14 12:10 50.26099 6.90788 20877 ft 375 kts 112°
2026-04-14 12:11 50.25073 6.94498 20175 ft 370 kts 113°
2026-04-14 12:11 50.24070 6.98119 19501 ft 365 kts 113°
2026-04-14 12:11 50.23053 7.01786 18780 ft 362 kts 113°
2026-04-14 12:11 50.22056 7.05376 18032 ft 358 kts 112°
2026-04-14 12:12 50.21071 7.08919 17283 ft 354 kts 112°
2026-04-14 12:12 50.20100 7.12404 16624 ft 348 kts 112°
2026-04-14 12:12 50.19156 7.15792 15928 ft 344 kts 112°
2026-04-14 12:12 50.18207 7.19192 15267 ft 339 kts 112°
2026-04-14 12:13 50.17277 7.22514 14766 ft 329 kts 112°
2026-04-14 12:13 50.16377 7.25724 14353 ft 317 kts 112°
2026-04-14 12:13 50.15515 7.28829 13981 ft 307 kts 110°
2026-04-14 12:13 50.14757 7.31892 13614 ft 299 kts 109°
2026-04-14 12:14 50.14037 7.34905 13274 ft 297 kts 111°
2026-04-14 12:14 50.13302 7.37967 12951 ft 307 kts 111°
2026-04-14 12:14 50.12550 7.41084 12594 ft 307 kts 111°
2026-04-14 12:14 50.11800 7.44180 12219 ft 305 kts 111°
2026-04-14 12:15 50.11051 7.47262 11841 ft 303 kts 111°
2026-04-14 12:15 50.10308 7.50322 11457 ft 301 kts 111°
2026-04-14 12:15 50.09576 7.53358 11090 ft 298 kts 111°
2026-04-14 12:15 50.08840 7.56362 10724 ft 296 kts 111°
2026-04-14 12:16 50.08110 7.59335 10367 ft 293 kts 111°
2026-04-14 12:16 50.07385 7.62286 9991 ft 291 kts 111°
2026-04-14 12:16 50.06662 7.65216 9587 ft 289 kts 111°
2026-04-14 12:16 50.05946 7.68127 9190 ft 287 kts 110°
2026-04-14 12:17 50.05237 7.71015 8787 ft 284 kts 110°
2026-04-14 12:17 50.04531 7.73875 8392 ft 283 kts 109°
2026-04-14 12:17 50.03827 7.76727 8018 ft 281 kts 109°
2026-04-14 12:17 50.03127 7.79561 7644 ft 280 kts 109°
2026-04-14 12:18 50.02431 7.82375 7257 ft 277 kts 109°
2026-04-14 12:18 50.01455 7.84915 6849 ft 275 kts 131°
2026-04-14 12:18 50.00511 7.86207 6604 ft 272 kts 140°
2026-04-14 12:18 49.99008 7.87945 6208 ft 267 kts 144°
2026-04-14 12:19 49.97398 7.89323 5796 ft 261 kts 152°
2026-04-14 12:19 49.95781 7.90513 5391 ft 254 kts 153°
2026-04-14 12:19 49.94207 7.91645 5053 ft 243 kts 153°
2026-04-14 12:19 49.92744 7.92690 4971 ft 218 kts 153°
2026-04-14 12:20 49.91623 7.93924 4973 ft 187 kts 121°
2026-04-14 12:20 49.91342 7.95679 4982 ft 157 kts 82°
2026-04-14 12:20 49.91524 7.97324 4985 ft 154 kts 73°
2026-04-14 12:20 49.91798 7.98931 4991 ft 154 kts 70°
2026-04-14 12:21 49.92104 8.00519 4994 ft 154 kts 70°
2026-04-14 12:21 49.92430 8.02096 4995 ft 154 kts 69°
2026-04-14 12:21 49.92750 8.03678 4997 ft 153 kts 71°
2026-04-14 12:21 49.93066 8.05260 4995 ft 153 kts 68°
2026-04-14 12:22 49.93425 8.06821 5002 ft 153 kts 67°
2026-04-14 12:22 49.93792 8.08371 5002 ft 153 kts 66°
2026-04-14 12:22 49.94164 8.09920 4995 ft 153 kts 66°
2026-04-14 12:22 49.94535 8.11466 4997 ft 153 kts 66°
2026-04-14 12:23 49.94890 8.12951 5023 ft 138 kts 66°
2026-04-14 12:23 49.95223 8.14333 5011 ft 136 kts 66°
2026-04-14 12:23 49.95552 8.15704 5002 ft 135 kts 66°
2026-04-14 12:23 49.95881 8.17075 4949 ft 136 kts 66°
2026-04-14 12:24 49.96211 8.18448 4817 ft 136 kts 66°
2026-04-14 12:24 49.96539 8.19818 4651 ft 135 kts 66°
2026-04-14 12:24 49.96869 8.21189 4458 ft 136 kts 66°
2026-04-14 12:24 49.97198 8.22560 4269 ft 136 kts 66°
2026-04-14 12:25 49.97526 8.23930 4070 ft 135 kts 66°
2026-04-14 12:25 49.97854 8.25296 3878 ft 135 kts 65°
2026-04-14 12:25 49.98180 8.26656 3669 ft 134 kts 66°
2026-04-14 12:25 49.98507 8.28018 3481 ft 135 kts 67°
2026-04-14 12:26 49.98833 8.29379 3294 ft 133 kts 66°
2026-04-14 12:26 49.99157 8.30729 3089 ft 134 kts 66°
2026-04-14 12:26 49.99477 8.32061 2906 ft 133 kts 65°
2026-04-14 12:26 49.99800 8.33410 2699 ft 134 kts 67°
2026-04-14 12:27 50.00123 8.34759 2513 ft 133 kts 66°
2026-04-14 12:27 50.00446 8.36106 2310 ft 133 kts 66°
2026-04-14 12:27 50.00766 8.37445 2114 ft 132 kts 66°
2026-04-14 12:27 50.01086 8.38777 1923 ft 131 kts 65°
2026-04-14 12:28 50.01404 8.40104 1724 ft 131 kts 65°
2026-04-14 12:28 50.01721 8.41431 1544 ft 131 kts 67°
2026-04-14 12:28 50.02037 8.42763 1286 ft 131 kts 67°
2026-04-14 12:28 50.02364 8.44088 1111 ft 131 kts 66°
2026-04-14 12:29 50.02667 8.45423 958 ft 130 kts 66°
2026-04-14 12:29 50.02989 8.46745 797 ft 131 kts 65°
2026-04-14 12:29 50.03310 8.48066 581 ft 132 kts 66°
2026-04-14 12:29 50.03626 8.49389 416 ft 130 kts 66°
2026-04-14 12:30 50.03933 8.50678 327 ft 117 kts 69°
2026-04-14 12:30 50.04152 8.51572 337 ft 60 kts 70°
2026-04-14 12:30 50.04236 8.52082 345 ft 43 kts 90°
2026-04-14 12:30 50.04225 8.52256 354 ft 6 kts 101°
2026-04-14 12:31 50.04215 8.52337 351 ft 10 kts 101°
2026-04-14 12:31 50.04200 8.52470 352 ft 15 kts 99°
2026-04-14 12:31 50.04194 8.52653 357 ft 19 kts 74°
2026-04-14 12:31 50.04247 8.52866 362 ft 23 kts 70°
2026-04-14 12:32 50.04305 8.53114 365 ft 26 kts 70°
2026-04-14 12:32 50.04370 8.53395 376 ft 29 kts 70°
2026-04-14 12:32 50.04406 8.53684 381 ft 25 kts 85°
2026-04-14 12:32 50.04422 8.53965 381 ft 27 kts 84°
2026-04-14 12:33 50.04442 8.54223 381 ft 18 kts 83°
2026-04-14 12:33 50.04454 8.54425 376 ft 19 kts 91°
2026-04-14 12:33 50.04415 8.54628 370 ft 20 kts 122°
2026-04-14 12:33 50.04304 8.54776 362 ft 22 kts 157°
2026-04-14 12:34 50.04157 8.54856 363 ft 23 kts 160°
2026-04-14 12:34 50.04015 8.54978 360 ft 26 kts 90°
2026-04-14 12:34 50.04069 8.55227 362 ft 24 kts 69°
2026-04-14 12:34 50.04129 8.55480 360 ft 26 kts 70°
2026-04-14 12:35 50.04192 8.55749 360 ft 27 kts 69°
2026-04-14 12:35 50.04258 8.56018 363 ft 26 kts 69°
2026-04-14 12:35 50.04321 8.56282 363 ft 26 kts 70°
2026-04-14 12:35 50.04387 8.56557 366 ft 28 kts 69°
2026-04-14 12:36 50.04454 8.56823 366 ft 24 kts 48°
2026-04-14 12:36 50.04588 8.56909 362 ft 7 kts 13°
2026-04-14 12:36 50.04635 8.56875 361 ft 10 kts 300°
2026-04-14 12:36 50.04653 8.56816 365 ft 0 kts 295°